Location: Central Falls
(41.8900°N, 71.3929°W)
Time: 04:44:36
(UTC+00:00)

Vanguard 3 - Pass Details

Date: 08 December 2023
Orbit: 508 x 3239 km, 33.4° (Epoch: 01 March)

Event Time Altitude Azimuth Distance (km) Brightness Sun altitude
Rises 23:30:07 0° 215° (SW) 7,153 12.6 -24.5°
Reaches altitude 10° 23:36:01 10° 207° (SSW) 5,974 12.0 -25.6°
Maximum altitude 23:50:17 31° 154° (SSE) 3,677 10.2 -28.2°
Enters shadow 23:54:02 28° 130° (SE) 3,570 10.0 -28.9°
